Home   Weather   Iserlohn   Past weeks

Flag for Germany Past Weather in Iserlohn, North Rhine-Westphalia, Germany — Yesterday and Last 2 Weeks

Now
43 °F

Clear.


Feels Like: 36 °F
Forecast: 38 / 46 °F
Wind: 13 mph from Southwest

Location: Dortmund / Wickede

Current Time: Dec 8, 2016 at 9:04:01 am

Latest Report: Dec 8, 2016 at 8:20 am


Visibility: 10 mi

Pressure: 30.39 "Hg

Humidity: 57%

Dew Point: 28 °F

Location of IserlohnLocation

Past Weather in Iserlohn — Graph

°F

Iserlohn Temperature Yesterday

Maximum temperature yesterday: 46 °F (at 2:20 pm)
Minimum temperature yesterday: 36 °F (at 5:20 am)
Average temperature yesterday: 43 °F

High & Low Weather Summary for the Past Weeks

 TemperatureHumidityPressure
High54 °F (Nov 23, 3:20 pm)93% (Nov 24, 5:20 am)30.57 "Hg (Nov 24, 5:20 am)
Low21 °F (Nov 29, 6:50 am)41% (Nov 30, 12:20 pm)30.01 "Hg (Nov 23, 7:20 am)
Average36 °F77%30.27 "Hg
* Reported Nov 23 7:20 am — Dec 8 7:50 am, Iserlohn, Weather by CustomWeather, © 2016

Note: Actual official high and low records may vary slightly from our data, if they occured in-between our weather recording intervals... More about our weather records

Advertising

Iserlohn Weather History for the Previous 24 Hours

Scroll right to see more
 ConditionsComfort  
Time TempWeatherWind HumidityBarometerVisibility
7:50 am
Thu, Dec 8
45 °FClear.16 mph57%30.39 "Hg10 mi
7:20 am43 °FClear.14 mph61%30.39 "Hg10 mi
6:50 am43 °FClear.13 mph61%30.36 "Hg10 mi
6:20 am43 °FClear.14 mph61%30.36 "Hg10 mi
5:50 am43 °FClear.15 mph61%30.36 "Hg10 mi
5:20 am43 °FClear.13 mph66%30.39 "Hg10 mi
9:50 pm
Wed, Dec 7
46 °FClear.14 mph62%30.42 "Hg10 mi
9:20 pm45 °FClear.10 mph66%30.42 "Hg10 mi
8:50 pm45 °FClear.14 mph66%30.42 "Hg10 mi
8:20 pm45 °FClear.15 mph66%30.42 "Hg10 mi
7:50 pm45 °FClear.14 mph66%30.42 "Hg10 mi
7:20 pm45 °FClear.14 mph66%30.39 "Hg10 mi
6:50 pm45 °FClear.13 mph66%30.39 "Hg10 mi
6:20 pm45 °FClear.14 mph66%30.39 "Hg10 mi
5:50 pm45 °FClear.16 mph66%30.39 "Hg10 mi
5:20 pm45 °FClear.13 mph66%30.39 "Hg10 mi
4:50 pm45 °FClear.13 mph66%30.39 "Hg10 mi
4:20 pm45 °FClear.10 mph66%30.39 "Hg10 mi
3:50 pm45 °FSunny.12 mph66%30.39 "Hg10 mi
3:20 pm46 °FSunny.12 mph62%30.39 "Hg10 mi
2:50 pm46 °FSunny.10 mph62%30.39 "Hg10 mi
2:20 pm46 °FSunny.15 mph62%30.39 "Hg10 mi
1:50 pm45 °FSunny.13 mph66%30.39 "Hg10 mi
1:20 pm45 °FSunny.13 mph66%30.39 "Hg10 mi
12:50 pm45 °FSunny.14 mph66%30.42 "Hg10 mi
12:20 pm45 °FSunny.12 mph66%30.42 "Hg10 mi
11:50 am43 °FSunny.14 mph66%30.42 "Hg10 mi
11:20 am43 °FSunny.14 mph66%30.42 "Hg10 mi
10:50 am41 °FSunny.14 mph70%30.42 "Hg10 mi
10:20 am41 °FSunny.15 mph70%30.42 "Hg10 mi
9:50 am41 °FSunny.15 mph70%30.42 "Hg10 mi
9:20 am41 °FSunny.14 mph70%30.42 "Hg10 mi
Weather by CustomWeather, © 2016

See weather overviewHow to use our weather pages